Regional Weather Roundup
Issued by NWS

Home | Current Version | Previous Version | Text Only | Print | Product List | Glossary On
Versions: 1 2 3 4 5 6 7 8 9 10 11 12 13 14 15 16 17 18 19 20 21 22 23 24 25 26 27 28 29 30 31 32 33 34 35 36 37 38 39 40 41 42 43 44 45 46 47 48 49 50
000
ASUS42 KFFC 271410
RWRGA

GEORGIA REGIONAL WEATHER ROUNDUP
NATIONAL WEATHER SERVICE BIRMINGHAM AL
1000 AM EDT MON MAR 27 2017

NOTE: "FAIR" INDICATES FEW OR NO CLOUDS BELOW 12,000 FEET
WITH NO SIGNIFICANT WEATHER AND/OR OBSTRUCTIONS TO VISIBILITY.

THE REMARK "TC" DENOTES TEMPERATURE IN DEGREES CELSIUS.

GAZ001>058-271500-
NORTH GEORGIA

CITY           SKY/WX    TMP DP  RH WIND       PRES   REMARKS
ATLANTA        PTSUNNY   64  62  93 SW6       30.12F
ATHENS         CLOUDY    66  59  78 SW6       30.12S
CHAMBLEE       CLOUDY    62  60  93 SW6       30.13S FOG
PEACHTREE CITY MOSUNNY   65  63  93 SW5       30.13F
ROME           CLOUDY    64  58  80 CALM      30.09R
WEST ATLANTA   CLOUDY    62  58  86 W5        30.13R FOG
GAINESVILLE    CLOUDY    62  58  86 SW5       30.14R
CARTERSVILLE   CLOUDY    62  58  86 CALM      30.12R


CITY           SKY/WX    TMP DP  RH WIND       PRES   REMARKS
MARIETTA       CLOUDY    62  60  93 SW3       30.12S FOG
KENNESAW*      CLOUDY    61  57  88 CALM      30.13S FOG
WASHINGTON*    MOSUNNY   68  61  77 SW5       30.13R
NEWNAN*        CLOUDY    67  65  93 W5        30.13R
$$

GAZ059>098-102>109-271500-
CENTRAL GEORGIA

CITY           SKY/WX    TMP DP  RH WIND       PRES   REMARKS
AUGUSTA-BUSH   NOT AVBL
COLUMBUS       PTSUNNY   69  63  81 S6        30.13S
MACON          CLOUDY    64  61  90 W9        30.15R
FT BENNING     MOSUNNY   68  64  88 S7        30.13R
ROBINS AFB     CLOUDY    67  61  82 W7        30.14R


CITY           SKY/WX    TMP DP  RH WIND       PRES   REMARKS
STATESBORO*    CLOUDY    70  64  80 S7        30.15R
SYLVANIA*      CLOUDY   N/A N/A N/A SW6       30.16R
$$

AZ099>101-110>166-271500-
SOUTH GEORGIA

CITY           SKY/WX    TMP DP  RH WIND       PRES   REMARKS
SAVANNAH       NOT AVBL
VALDOSTA       SUNNY     70  60  70 S7        30.14R
ALMA           SUNNY     70  62  76 SW7       30.15R
ST SIMONS      SUNNY     73  61  65 SW7       30.14S
FT STEWART     SUNNY     70  61  72 S5        30.12S
ALBANY         MOSUNNY   70  63  78 SE3       30.17R
HUNTER AFB     SUNNY     73  64  74 SW7       30.13R
MOODY AFB      SUNNY     71  59  65 S9        30.14R
BRUNSWICK      SUNNY     70  64  83 SW8       30.16R


CITY           SKY/WX    TMP DP  RH WIND       PRES   REMARKS
BAINBRIDGE*    MOSUNNY   68  64  88 CALM      30.15R
MOULTRIE*      MOSUNNY   70  61  73 CALM      30.16R
VIDALIA*       CLOUDY    72  61  68 SW7       30.15R
WAYCROSS*      SUNNY     75  66  73 SW10      30.15R
$$




USA.gov is the U.S. government's official web portal to all federal, state and local government web resources and services.